OBJECT U, 62395

Orbit data source: Space-Track

You're viewing an Uncataloged Satellite

Recently launched and/or uncataloged satellites may have evolving metadata. Metadata may include but not limited to: Owner, Maufacturer, Bus, Motor, and Mission.

OBJECT U, 62395 is a satellite in LEO that was launched on Sat, 21 Dec 2024 UTC via an FALCON 9 launch vehicle from the Air Force Western Test Range (AFWTR). Unknown objects in Earth's orbit typically refer to objects detected orbiting the Earth but have not yet been identified or cataloged. These objects could be anything from previously untracked satellites, spent rocket stages, debris from satellite collisions, or even natural meteoroids temporarily captured by Earth's gravity.

Loading next visibility...
Identifier
62395, 2024-247U
Orbit
LEO
Country
Flag of TBDTBD
Related business
None
Manufacturer
Unknown
Mission
Operational Commercial Communications
Bus & Motor
Unknown
Mass
Unknown
Launch date (UTC)
2024-12-21 (10 months ago)
Launch vehicle
FALCON 9
Launch site
Air Force Western Test Range (AFWTR)
Object type
Unknown
Shape & HBR
Box, 0.0 m
Radar Cross Section
0.004 m², Small (<0.1 m²)

Expand to show TLE details & history
Last TLE update: 1 day ago

TLE from 1 day ago
0 OBJECT U
1 62395U 24247U   25299.77562978  .00027551  00000-0  85591-3 0  9993
2 62395  44.9990 115.7536 0008596 252.4860 107.5086 15.32895338 47404
Epoch: 2025-10-26T18:36Z
TLE epoch observation values (Epoch: 2025-10-26T18:36:54.412Z)
Latitude
-0.00003°
Longitude
161.13987°
Altitude
468.952 km
Speed
7.632 km/s
True Right ascension
07h 43m 00s
True Declination
0° 00' 00"
Sunlit
Object was in daylight at epoch
Visualization orbit readout
Latitude
Unknown
Longitude
Unknown
Altitude
Unknown
Speed
Unknown
Apparent Right ascension
Unknown
Apparent Declination
Unknown
Sunlit
N/A
Visualization observer readout
Local Sidereal Time
01:33:50
Azimuth
Unknown
Elevation
Unknown
Doppler factor
Unknown
Orbital elements
Apogee altitude
474.678 km
Perigee altitude
462.907 km
Semi-major axis
6,846.929 km
Eccentricity
0.00086
Inclination
44.999°
RAAN
115.7536°
Arg. of periapsis
252.486°
True anomaly
107.60251°
Mean anomaly
107.5086°
Eccentric anomaly
107.55556°
Mean motion
3.83089 °/min
Orbital period
93.97 mins
BSTAR
0.00085591
Loading maneuver chart data...
Computing Atmospheric mass density...
Loading historical data...
Loading historical data...
Loading historical data...
Loading historical data...
Loading historical data...
Loading historical data...
Loading historical data...

Documentation

Showing up to 5 results
|